,,,PA_Meas_PMT16A,,PR_Meas_QMR101_102,,RH_Meas_QMH101,,SR_Meas_QMS101,,TA_Meas_QMH101,,GenWind,,GenWind,
date,time,status,PA,status,PR,status,RH,status,SR,status,TA,status,DirAvg,status,SpdAvg,
2008-08-07, 07:48:04,INVALID - VALUE NOT AVAILABLE,0,INVALID - VALUE NOT AVAILABLE,0,INVALID - VALUE NOT AVAILABLE,0,INVALID - VALUE NOT AVAILABLE,0,INVALID - VALUE NOT AVAILABLE,0,INVALID,360,INVALID,0,
2008-08-07, 07:49:04,VALID,1005.5,VALID,0,VALID,95.0177,VALID,238.435,VALID,25.0293,VALID,60,VALID,0.387109,
2008-08-07, 07:50:04,VALID,1005.52,VALID,0,VALID,94.7888,VALID,239.44,VALID,24.969,VALID,144,VALID,0.49375,
2008-08-07, 07:51:04,VALID,1005.51,VALID,0,VALID,94.8117,VALID,252.011,VALID,25.0293,VALID,144,VALID,0.0496094,
2008-08-07, 07:52:04,VALID,1005.53,VALID,0,VALID,95.0635,VALID,262.067,VALID,25.1656,VALID,144,VALID,0,
2008-08-07, 07:53:04,VALID,1005.52,VALID,0,VALID,94.8728,VALID,249.698,VALID,25.1851,VALID,144,VALID,0.293359,
2008-08-07, 07:54:04,VALID,1005.55,VALID,0,VALID,94.5981,VALID,223.551,VALID,25.1656,VALID,140,VALID,0.633203,
2008-08-07, 07:55:04,VALID,1005.55,VALID,0,VALID,94.5142,VALID,165.728,VALID,25.2046,VALID,106,VALID,0.576953,
2008-08-07, 07:56:04,VALID,1005.53,VALID,0,VALID,94.6515,VALID,181.315,VALID,25.2825,VALID,71,VALID,0.568359,
2008-08-07, 07:57:04,VALID,1005.54,VALID,0,VALID,94.4532,VALID,171.661,VALID,25.2825,VALID,69,VALID,0.295312,
2008-08-07, 07:58:04,VALID,1005.53,VALID,0,VALID,94.2701,VALID,170.756,VALID,25.2825,VALID,93,VALID,0.482422,
2008-08-07, 07:59:04,VALID,1005.49,VALID,0,VALID,93.4309,VALID,160.398,VALID,25.1461,VALID,102,VALID,0.897266,
2008-08-07, 08:00:04,VALID,1005.53,VALID,0,VALID,93.3394,VALID,157.683,VALID,25.1461,VALID,122,VALID,0.305078,
2008-08-07, 08:01:04,VALID,1005.55,VALID,0,VALID,93.5835,VALID,155.772,VALID,25.1851,VALID,45,VALID,0.584766,
2008-08-07, 08:02:04,VALID,1005.54,VALID,0,VALID,93.5377,VALID,149.537,VALID,25.226,VALID,66,VALID,0.449609,
2008-08-07, 08:03:04,VALID,1005.59,VALID,0,VALID,93.614,VALID,149.135,VALID,25.224,VALID,126,VALID,0.732422,
2008-08-07, 08:04:04,VALID,1005.57,VALID,0,VALID,93.4385,VALID,143.001,VALID,25.224,VALID,76,VALID,1.01992,
2008-08-07, 08:05:04,VALID,1005.55,VALID,0,VALID,93.1868,VALID,135.659,VALID,25.2046,VALID,71,VALID,0.566797,
2008-08-07, 08:06:04,VALID,1005.56,VALID,0,VALID,93.3317,VALID,133.548,VALID,25.224,VALID,83,VALID,0.359766,
2008-08-07, 08:07:04,VALID,1005.58,VALID,0,VALID,92.9884,VALID,133.045,VALID,25.1656,VALID,86,VALID,0.644141,
2008-08-07, 08:08:04,VALID,1005.57,VALID,0,VALID,92.7443,VALID,132.643,VALID,25.1461,VALID,94,VALID,0.997266,
2008-08-07, 08:09:04,VALID,1005.58,VALID,0,VALID,92.9808,VALID,133.749,VALID,25.1656,VALID,84,VALID,0.563281,
2008-08-07, 08:10:04,VALID,1005.57,VALID,0,VALID,93.1257,VALID,135.056,VALID,25.226,VALID,63,VALID,0.349219,
2008-08-07, 08:11:04,VALID,1005.56,VALID,0,VALID,92.7824,VALID,136.967,VALID,25.1851,VALID,51,VALID,0.341797,
2008-08-07, 08:12:04,VALID,1005.58,VALID,0,VALID,92.7138,VALID,138.877,VALID,25.1656,VALID,88,VALID,0.473828,
2008-08-07, 08:13:04,VALID,1005.62,VALID,0,VALID,92.7596,VALID,143.101,VALID,25.187,VALID,100,VALID,0.600391,
2008-08-07, 08:14:04,VALID,1005.61,VALID,0,VALID,92.7824,VALID,150.844,VALID,25.187,VALID,89,VALID,0.415234,
2008-08-07, 08:15:04,VALID,1005.61,VALID,0,VALID,93.0189,VALID,162.309,VALID,25.226,VALID,89,VALID,0.375391,
2008-08-07, 08:16:04,VALID,1005.66,VALID,0,VALID,92.7367,VALID,168.544,VALID,25.2454,VALID,130,VALID,0.672656,
2008-08-07, 08:17:04,VALID,1005.69,VALID,0,VALID,92.607,VALID,171.762,VALID,25.2454,VALID,159,VALID,0.991406,
2008-08-07, 08:18:04,VALID,1005.7,VALID,0,VALID,92.4773,VALID,167.236,VALID,25.2027,VALID,155,VALID,0.850391,
2008-08-07, 08:19:04,VALID,1005.7,VALID,0,VALID,92.0424,VALID,147.626,VALID,25.2046,VALID,141,VALID,0.666406,
2008-08-07, 08:20:04,VALID,1005.73,VALID,0,VALID,92.0348,VALID,156.074,VALID,25.1832,VALID,149,VALID,1.36719,
2008-08-07, 08:21:04,VALID,1005.73,VALID,0,VALID,92.4697,VALID,152.152,VALID,25.224,VALID,112,VALID,0.621094,
2008-08-07, 08:22:04,VALID,1005.76,VALID,0,VALID,92.5841,VALID,177.795,VALID,25.2806,VALID,129,VALID,0.583203,
2008-08-07, 08:23:04,VALID,1005.75,VALID,0,VALID,92.195,VALID,185.136,VALID,25.3019,VALID,102,VALID,0.701953,
2008-08-07, 08:24:04,VALID,1005.75,VALID,0,VALID,92.0043,VALID,190.768,VALID,25.2825,VALID,75,VALID,0.601953,
2008-08-07, 08:25:04,VALID,1005.73,VALID,0,VALID,92.3934,VALID,191.371,VALID,25.3409,VALID,42,VALID,0.455469,
2008-08-07, 08:26:04,VALID,1005.73,VALID,0,VALID,91.928,VALID,190.466,VALID,25.339,VALID,20,VALID,0.547266,
2008-08-07, 08:27:04,VALID,1005.76,VALID,0,VALID,92.0043,VALID,190.969,VALID,25.339,VALID,41,VALID,0.212891,
2008-08-07, 08:28:04,VALID,1005.75,VALID,0,VALID,92.4086,VALID,191.472,VALID,25.4169,VALID,41,VALID,0.00703125,
2008-08-07, 08:29:04,VALID,1005.77,VALID,0,VALID,91.394,VALID,191.975,VALID,25.3779,VALID,70,VALID,0.547266,
2008-08-07, 08:30:04,VALID,1005.79,VALID,0,VALID,90.9286,VALID,193.684,VALID,25.3798,VALID,74,VALID,0.375,
2008-08-07, 08:31:04,VALID,1005.79,VALID,0,VALID,91.0431,VALID,193.885,VALID,25.3993,VALID,74,VALID,0.208594,
2008-08-07, 08:32:04,VALID,1005.77,VALID,0,VALID,90.8676,VALID,193.684,VALID,25.4207,VALID,113,VALID,0.84375,
2008-08-07, 08:33:04,VALID,1005.73,VALID,0,VALID,90.8829,VALID,195.997,VALID,25.3993,VALID,101,VALID,0.412109,
2008-08-07, 08:34:04,VALID,1005.72,VALID,0,VALID,90.5167,VALID,198.612,VALID,25.4383,VALID,107,VALID,0.580469,
2008-08-07, 08:35:04,VALID,1005.74,VALID,0,VALID,90.0055,VALID,201.83,VALID,25.4383,VALID,119,VALID,0.938672,
2008-08-07, 08:36:04,VALID,1005.75,VALID,0,VALID,90.181,VALID,211.484,VALID,25.4383,VALID,121,VALID,1.06016,
2008-08-07, 08:37:04,VALID,1005.73,VALID,0.5,VALID,90.0971,VALID,224.456,VALID,25.4169,VALID,130,VALID,1.05938,
2008-08-07, 08:38:04,VALID,1005.72,VALID,0,VALID,90.1581,VALID,234.211,VALID,25.4402,VALID,115,VALID,1.21836,
2008-08-07, 08:39:04,VALID,1005.71,VALID,0,VALID,90.448,VALID,239.843,VALID,25.3798,VALID,109,VALID,0.791797,
2008-08-07, 08:40:04,VALID,1005.71,VALID,0,VALID,91.4016,VALID,240.044,VALID,25.4383,VALID,111,VALID,0.971875,
2008-08-07, 08:41:04,VALID,1005.69,VALID,0,VALID,91.2719,VALID,244.67,VALID,25.4188,VALID,108,VALID,0.613281,
2008-08-07, 08:42:04,VALID,1005.7,VALID,0,VALID,91.8212,VALID,244.469,VALID,25.4558,VALID,117,VALID,0.499609,
2008-08-07, 08:43:04,VALID,1005.69,VALID,0,VALID,91.8365,VALID,242.055,VALID,25.5162,VALID,166,VALID,0.482422,
2008-08-07, 08:44:04,VALID,1005.66,VALID,0,VALID,91.4092,VALID,241.15,VALID,25.4753,VALID,132,VALID,1.09805,
2008-08-07, 08:45:04,VALID,1005.64,VALID,0,VALID,91.4703,VALID,243.262,VALID,25.5357,VALID,93,VALID,0.608594,
2008-08-07, 08:46:04,VALID,1005.65,VALID,0,VALID,90.6006,VALID,240.144,VALID,25.5162,VALID,104,VALID,0.823047,
2008-08-07, 08:47:04,VALID,1005.69,VALID,0,VALID,90.8829,VALID,237.53,VALID,25.5357,VALID,113,VALID,0.639063,
2008-08-07, 08:48:04,VALID,1005.67,VALID,0,VALID,90.3717,VALID,232.3,VALID,25.5551,VALID,100,VALID,0.401172,
2008-08-07, 08:49:04,VALID,1005.66,VALID,0,VALID,90.4175,VALID,230.289,VALID,25.5941,VALID,135,VALID,0.659375,
2008-08-07, 08:50:04,VALID,1005.65,VALID,0,VALID,89.7233,VALID,224.758,VALID,25.5532,VALID,112,VALID,0.519531,
2008-08-07, 08:51:04,VALID,1005.65,VALID,0,VALID,90.0742,VALID,222.043,VALID,25.633,VALID,116,VALID,0.421875,
2008-08-07, 08:52:04,VALID,1005.67,VALID,0,VALID,90.4785,VALID,222.948,VALID,25.6915,VALID,103,VALID,0.703906,
2008-08-07, 08:53:04,VALID,1005.63,VALID,0,VALID,89.6851,VALID,215.506,VALID,25.6915,VALID,70,VALID,0.478125,
2008-08-07, 08:54:04,VALID,1005.64,VALID,0,VALID,90.1657,VALID,208.869,VALID,25.7694,VALID,70,VALID,0.229297,
2008-08-07, 08:55:04,VALID,1005.61,VALID,0,VALID,90.0208,VALID,206.657,VALID,25.8083,VALID,70,VALID,0.322656,
2008-08-07, 08:56:04,VALID,1005.57,VALID,0,VALID,90.4175,VALID,204.746,VALID,25.8687,VALID,68,VALID,0.238672,
2008-08-07, 08:57:04,VALID,1005.58,VALID,0,VALID,89.1282,VALID,204.143,VALID,25.8668,VALID,37,VALID,0.542188,
2008-08-07, 08:58:04,VALID,1005.53,VALID,0,VALID,89.0748,VALID,206.255,VALID,25.8882,VALID,37,VALID,0.419531,
2008-08-07, 08:59:04,VALID,1005.51,VALID,0,VALID,88.9909,VALID,213.998,VALID,25.8863,VALID,37,VALID,0,
2008-08-07, 09:00:04,VALID,1005.52,VALID,0,VALID,89.2808,VALID,218.523,VALID,25.9467,VALID,37,VALID,0,
2008-08-07, 09:01:04,VALID,1005.54,VALID,0,VALID,89.3418,VALID,220.132,VALID,25.9836,VALID,37,VALID,0.0550781,
2008-08-07, 09:02:04,VALID,1005.51,VALID,0,VALID,89.1969,VALID,223.551,VALID,26.0031,VALID,37,VALID,0.176953,
2008-08-07, 09:03:04,VALID,1005.53,VALID,0,VALID,89.0367,VALID,226.166,VALID,26.0421,VALID,37,VALID,0.327344,
2008-08-07, 09:04:04,VALID,1005.53,VALID,0,VALID,88.1517,VALID,245.273,VALID,26.0421,VALID,48,VALID,0.409766,
2008-08-07, 09:05:04,VALID,1005.51,VALID,0,VALID,87.9762,VALID,230.49,VALID,26.0616,VALID,83,VALID,0.741406,
2008-08-07, 09:06:04,VALID,1005.47,VALID,0,VALID,88.6705,VALID,232.602,VALID,26.12,VALID,9,VALID,0.595312,
2008-08-07, 09:07:04,VALID,1005.44,VALID,0,VALID,86.3666,VALID,232.3,VALID,26.122,VALID,79,VALID,0.560938,
2008-08-07, 09:08:04,VALID,1005.42,VALID,0,VALID,86.5496,VALID,237.53,VALID,26.1415,VALID,111,VALID,0.475391,
2008-08-07, 09:09:04,VALID,1005.4,VALID,0,VALID,85.1765,VALID,239.34,VALID,26.159,VALID,70,VALID,1.03672,
2008-08-07, 09:10:04,VALID,1005.37,VALID,0,VALID,83.5134,VALID,236.926,VALID,26.1395,VALID,118,VALID,1.61602,
2008-08-07, 09:11:04,VALID,1005.36,VALID,0,VALID,84.6729,VALID,237.228,VALID,26.1609,VALID,94,VALID,0.223828,
2008-08-07, 09:12:04,VALID,1005.33,VALID,0,VALID,84.9476,VALID,238.234,VALID,26.1979,VALID,94,VALID,0.315625,
2008-08-07, 09:13:04,VALID,1005.31,VALID,0,VALID,84.1466,VALID,236.826,VALID,26.2389,VALID,92,VALID,0.622266,
2008-08-07, 09:14:04,VALID,1005.27,VALID,0,VALID,84.0321,VALID,236.021,VALID,26.2174,VALID,109,VALID,0.776563,
2008-08-07, 09:15:04,VALID,1005.24,VALID,0,VALID,84.8255,VALID,235.619,VALID,26.2174,VALID,105,VALID,1.21523,
2008-08-07, 09:16:04,VALID,1005.24,VALID,0,VALID,86.1911,VALID,234.814,VALID,26.2584,VALID,111,VALID,0.709375,
2008-08-07, 09:17:04,VALID,1005.24,VALID,0,VALID,84.5051,VALID,233.407,VALID,26.2194,VALID,120,VALID,0.566797,
2008-08-07, 09:18:04,VALID,1005.2,VALID,0,VALID,85.6266,VALID,231.596,VALID,26.2349,VALID,120,VALID,0.174219,
2008-08-07, 09:19:04,VALID,1005.19,VALID,0,VALID,85.3672,VALID,229.585,VALID,26.2739,VALID,113,VALID,0.561328,
2008-08-07, 09:20:04,VALID,1005.19,VALID,0,VALID,85.6494,VALID,227.473,VALID,26.2933,VALID,110,VALID,0.508203,
2008-08-07, 09:21:04,VALID,1005.18,VALID,0,VALID,85.4511,VALID,225.16,VALID,26.3323,VALID,117,VALID,0.690234,
2008-08-07, 09:22:04,VALID,1005.15,VALID,0,VALID,84.2381,VALID,222.747,VALID,26.2953,VALID,137,VALID,1.06953,
2008-08-07, 09:23:04,VALID,1005.16,VALID,0,VALID,85.123,VALID,221.138,VALID,26.2953,VALID,114,VALID,0.832422,
2008-08-07, 09:24:04,VALID,1005.18,VALID,0,VALID,83.6736,VALID,220.233,VALID,26.2564,VALID,128,VALID,1.42383,
2008-08-07, 09:25:04,VALID,1005.17,VALID,0,VALID,84.3678,VALID,220.233,VALID,26.2154,VALID,135,VALID,1.0832,
2008-08-07, 09:26:04,VALID,1005.18,VALID,0,VALID,84.2457,VALID,220.736,VALID,26.2564,VALID,119,VALID,1.36953,
2008-08-07, 09:27:04,VALID,1005.2,VALID,0,VALID,84.94,VALID,221.641,VALID,26.2154,VALID,104,VALID,1.30938,
2008-08-07, 09:28:04,VALID,1005.21,VALID,0,VALID,84.3144,VALID,223.753,VALID,26.2174,VALID,99,VALID,0.619141,
2008-08-07, 09:29:04,VALID,1005.17,VALID,0,VALID,83.5744,VALID,227.876,VALID,26.2174,VALID,121,VALID,1.94922,
2008-08-07, 09:30:04,VALID,1005.15,VALID,0,VALID,83.9024,VALID,233.407,VALID,26.2174,VALID,105,VALID,0.910156,
2008-08-07, 09:31:04,VALID,1005.16,VALID,0,VALID,83.9635,VALID,234.915,VALID,26.1959,VALID,98,VALID,1.0457,
2008-08-07, 09:32:04,VALID,1005.15,VALID,0,VALID,83.3303,VALID,236.826,VALID,26.2564,VALID,87,VALID,0.912109,
2008-08-07, 09:33:04,VALID,1005.13,VALID,0,VALID,83.3074,VALID,242.558,VALID,26.2369,VALID,86,VALID,1.50937,
2008-08-07, 09:34:04,VALID,1005.1,VALID,0,VALID,84.1542,VALID,247.485,VALID,26.2564,VALID,63,VALID,0.942578,
2008-08-07, 09:35:04,VALID,1005.12,VALID,0,VALID,83.7193,VALID,248.089,VALID,26.2778,VALID,101,VALID,1.04141,
2008-08-07, 09:36:04,VALID,1005.12,VALID,0,VALID,84.4364,VALID,245.273,VALID,26.3168,VALID,92,VALID,0.950781,
2008-08-07, 09:37:04,VALID,1005.12,VALID,0,VALID,83.6812,VALID,241.351,VALID,26.3168,VALID,106,VALID,0.860156,
2008-08-07, 09:38:04,VALID,1005.14,VALID,0,VALID,84.9705,VALID,243.061,VALID,26.3343,VALID,113,VALID,0.664063,
2008-08-07, 09:39:04,VALID,1005.09,VALID,0,VALID,85.6647,VALID,243.161,VALID,26.4142,VALID,61,VALID,0.989453,
2008-08-07, 09:40:04,VALID,1005.06,VALID,0,VALID,84.4059,VALID,242.256,VALID,26.4122,VALID,78,VALID,0.364844,
2008-08-07, 09:41:04,VALID,1005.04,VALID,0,VALID,84.6424,VALID,238.736,VALID,26.4122,VALID,77,VALID,1.1375,
2008-08-07, 09:42:04,VALID,1005.08,VALID,0,VALID,84.795,VALID,235.016,VALID,26.4122,VALID,91,VALID,0.621875,
2008-08-07, 09:43:04,VALID,1005.03,VALID,0,VALID,84.5661,VALID,233.507,VALID,26.4317,VALID,122,VALID,1.01641,
2008-08-07, 09:44:04,VALID,1005.05,VALID,0,VALID,82.7276,VALID,235.217,VALID,26.3927,VALID,114,VALID,2.13398,
2008-08-07, 09:45:04,VALID,1004.99,VALID,0,VALID,83.5057,VALID,240.748,VALID,26.3733,VALID,127,VALID,1.07422,
2008-08-07, 09:46:04,VALID,1004.96,VALID,0,VALID,83.643,VALID,245.374,VALID,26.3733,VALID,117,VALID,1.68555,
2008-08-07, 09:47:04,VALID,1004.92,VALID,0,VALID,83.6888,VALID,252.011,VALID,26.3753,VALID,128,VALID,1.92539,
2008-08-07, 09:48:04,VALID,1004.91,VALID,0,VALID,86.3055,VALID,257.039,VALID,26.4317,VALID,128,VALID,0.798828,
2008-08-07, 09:49:04,VALID,1004.86,VALID,0,VALID,84.0931,VALID,261.263,VALID,26.3927,VALID,108,VALID,1.49375,
2008-08-07, 09:50:04,VALID,1004.84,VALID,0,VALID,83.6202,VALID,265.788,VALID,26.3753,VALID,117,VALID,1.21484,
2008-08-07, 09:51:04,VALID,1004.84,VALID,0,VALID,85.2299,VALID,271.822,VALID,26.3947,VALID,89,VALID,0.970312,
2008-08-07, 09:52:04,VALID,1004.85,VALID,0,VALID,84.8713,VALID,278.66,VALID,26.4122,VALID,45,VALID,0.630859,
2008-08-07, 09:53:04,VALID,1004.8,VALID,0,VALID,84.4441,VALID,286.705,VALID,26.4901,VALID,58,VALID,0.603906,
2008-08-07, 09:54:04,VALID,1004.81,VALID,0,VALID,85.4969,VALID,295.856,VALID,26.5896,VALID,86,VALID,0.658984,
2008-08-07, 09:55:04,VALID,1004.78,VALID,0,VALID,83.4218,VALID,307.622,VALID,26.5876,VALID,100,VALID,1.57773,
2008-08-07, 09:56:04,VALID,1004.76,VALID,0,VALID,83.4981,VALID,320.595,VALID,26.5486,VALID,84,VALID,0.817187,
2008-08-07, 09:57:04,VALID,1004.75,VALID,0,VALID,84.383,VALID,331.958,VALID,26.5681,VALID,124,VALID,0.910547,
2008-08-07, 09:58:04,VALID,1004.76,VALID,0,VALID,84.0169,VALID,350.462,VALID,26.6091,VALID,104,VALID,1.22773,
2008-08-07, 09:59:04,VALID,1004.77,VALID,0,VALID,83.46,VALID,378.921,VALID,26.6091,VALID,102,VALID,1.98477,
2008-08-07, 10:00:04,VALID,1004.73,VALID,0,VALID,82.8878,VALID,410.397,VALID,26.5291,VALID,84,VALID,2.01445,
2008-08-07, 10:01:04,VALID,1004.75,VALID,0,VALID,83.5973,VALID,411.705,VALID,26.5896,VALID,94,VALID,1.43398,
2008-08-07, 10:02:04,VALID,1004.77,VALID,0,VALID,85.0391,VALID,515.888,VALID,26.5876,VALID,107,VALID,1.62852,
2008-08-07, 10:03:04,VALID,1004.74,VALID,0,VALID,83.7727,VALID,569.991,VALID,26.6285,VALID,104,VALID,1.72812,
2008-08-07, 10:04:04,VALID,1004.72,VALID,0,VALID,83.8185,VALID,593.523,VALID,26.648,VALID,96,VALID,1.15781,
2008-08-07, 10:05:04,VALID,1004.66,VALID,0,VALID,83.994,VALID,652.855,VALID,26.7844,VALID,124,VALID,0.996094,
2008-08-07, 10:06:04,VALID,1004.64,VALID,0,VALID,84.9552,VALID,636.362,VALID,26.9383,VALID,124,VALID,0.932031,
2008-08-07, 10:07:04,VALID,1004.63,VALID,0,VALID,82.8954,VALID,656.475,VALID,27.0377,VALID,132,VALID,1.70977,
2008-08-07, 10:08:04,VALID,1004.62,VALID,0,VALID,80.8356,VALID,699.114,VALID,27.0962,VALID,110,VALID,1.92891,
2008-08-07, 10:09:04,VALID,1004.59,VALID,0,VALID,81.3925,VALID,549.576,VALID,27.1352,VALID,93,VALID,0.556641,
2008-08-07, 10:10:04,VALID,1004.59,VALID,0,VALID,82.3232,VALID,639.178,VALID,27.2306,VALID,90,VALID,1.74531,
2008-08-07, 10:11:04,VALID,1004.57,VALID,0,VALID,81.3544,VALID,663.816,VALID,27.3085,VALID,71,VALID,1.19258,
2008-08-07, 10:12:04,VALID,1004.58,VALID,0,VALID,83.9024,VALID,669.548,VALID,27.4644,VALID,40,VALID,0.953516,
2008-08-07, 10:13:04,VALID,1004.55,VALID,0,VALID,79.4014,VALID,664.62,VALID,27.5444,VALID,137,VALID,1.6125,
2008-08-07, 10:14:04,VALID,1004.51,VALID,0,VALID,79.7752,VALID,634.753,VALID,27.4665,VALID,109,VALID,1.57266,
2008-08-07, 10:15:04,VALID,1004.51,VALID,0,VALID,82.102,VALID,555.61,VALID,27.5834,VALID,89,VALID,0.580469,
2008-08-07, 10:16:04,VALID,1004.49,VALID,0,VALID,80.8738,VALID,475.964,VALID,27.7804,VALID,114,VALID,1.59531,
2008-08-07, 10:17:04,VALID,1004.45,VALID,0,VALID,79.4243,VALID,534.19,VALID,27.5834,VALID,51,VALID,1.04883,
2008-08-07, 10:18:04,VALID,1004.45,VALID,0,VALID,82.5445,VALID,519.307,VALID,27.6008,VALID,129,VALID,3.09492,
2008-08-07, 10:19:04,VALID,1004.42,VALID,0,VALID,81.2171,VALID,474.758,VALID,27.4644,VALID,120,VALID,1.75703,
2008-08-07, 10:20:04,VALID,1004.4,VALID,0,VALID,81.2552,VALID,583.366,VALID,27.4254,VALID,114,VALID,1.23203,
2008-08-07, 10:21:04,VALID,1004.37,VALID,0,VALID,80.8585,VALID,756.636,VALID,27.4839,VALID,134,VALID,1.50898,
2008-08-07, 10:22:04,VALID,1004.33,VALID,0,VALID,82.2622,VALID,778.659,VALID,27.5598,VALID,162,VALID,1.44727,
2008-08-07, 10:23:04,VALID,1004.33,VALID,0,VALID,81.2552,VALID,823.409,VALID,27.7762,VALID,88,VALID,1.53281,
2008-08-07, 10:24:04,VALID,1004.32,VALID,0,VALID,79.7828,VALID,639.279,VALID,27.8542,VALID,107,VALID,1.14063,
2008-08-07, 10:25:04,VALID,1004.27,VALID,0,VALID,77.9443,VALID,548.873,VALID,27.9321,VALID,92,VALID,1.25898,
2008-08-07, 10:26:04,VALID,1004.23,VALID,0,VALID,79.9507,VALID,576.527,VALID,27.9927,VALID,44,VALID,1.05,
2008-08-07, 10:27:04,VALID,1004.21,VALID,0,VALID,79.1725,VALID,625.703,VALID,28.0296,VALID,34,VALID,1.01367,
2008-08-07, 10:28:04,VALID,1004.21,VALID,0,VALID,77.7993,VALID,537.811,VALID,28.0686,VALID,145,VALID,0.875391,
2008-08-07, 10:29:04,VALID,1004.22,VALID,0,VALID,77.9595,VALID,367.658,VALID,28.1076,VALID,107,VALID,1.19844,
2008-08-07, 10:30:04,VALID,1004.21,VALID,0,VALID,79.7065,VALID,368.563,VALID,28.1292,VALID,138,VALID,1.05,
2008-08-07, 10:31:04,VALID,1004.19,VALID,0,VALID,76.5482,VALID,392.397,VALID,27.9927,VALID,95,VALID,0.874219,
2008-08-07, 10:32:04,VALID,1004.16,VALID,0,VALID,78.1045,VALID,437.851,VALID,27.8542,VALID,121,VALID,1.28984,
2008-08-07, 10:33:04,VALID,1004.16,VALID,0,VALID,77.0059,VALID,625.602,VALID,27.7804,VALID,112,VALID,2.80078,
2008-08-07, 10:34:04,VALID,1004.16,VALID,0,VALID,77.7612,VALID,661.402,VALID,27.6614,VALID,121,VALID,2.19453,
2008-08-07, 10:35:04,VALID,1004.14,VALID,0,VALID,76.8305,VALID,828.136,VALID,27.5813,VALID,122,VALID,2.23906,
2008-08-07, 10:36:04,VALID,1004.11,VALID,0,VALID,77.0364,VALID,860.215,VALID,27.6224,VALID,160,VALID,2.31758,
2008-08-07, 10:37:04,VALID,1004.12,VALID,0,VALID,78.9665,VALID,433.225,VALID,27.6809,VALID,128,VALID,2.2043,
2008-08-07, 10:38:04,VALID,1004.13,VALID,0,VALID,78.3257,VALID,936.04,VALID,27.6809,VALID,102,VALID,2.08086,
2008-08-07, 10:39:04,VALID,1004.09,VALID,0,VALID,79.3861,VALID,820.996,VALID,27.7394,VALID,119,VALID,1.28711,
2008-08-07, 10:40:04,VALID,1004.1,VALID,0,VALID,79.8591,VALID,919.95,VALID,27.9343,VALID,144,VALID,1.16289,
2008-08-07, 10:41:04,VALID,1004.06,VALID,0,VALID,77.4102,VALID,906.977,VALID,28.0686,VALID,121,VALID,1.58047,
2008-08-07, 10:42:04,VALID,1004.1,VALID,0,VALID,75.3962,VALID,831.052,VALID,28.1682,VALID,122,VALID,3.48438,
2008-08-07, 10:43:04,VALID,1004.1,VALID,0,VALID,75.8997,VALID,740.043,VALID,28.205,VALID,100,VALID,1.79727,
2008-08-07, 10:44:04,VALID,1004.07,VALID,0,VALID,75.9379,VALID,781.273,VALID,28.2245,VALID,52,VALID,1.89805,
2008-08-07, 10:45:04,VALID,1004.04,VALID,0,VALID,75.7166,VALID,883.948,VALID,28.1855,VALID,142,VALID,2.40703,
2008-08-07, 10:46:04,VALID,1004.05,VALID,0,VALID,76.4795,VALID,899.033,VALID,28.1682,VALID,128,VALID,2.41719,
2008-08-07, 10:47:04,VALID,1004.04,VALID,0,VALID,76.1744,VALID,938.252,VALID,28.3241,VALID,124,VALID,1.56367,
2008-08-07, 10:48:04,VALID,1004.05,VALID,0,VALID,76.0142,VALID,364.038,VALID,28.3631,VALID,81,VALID,1.48242,
2008-08-07, 10:49:04,VALID,1004.01,VALID,0,VALID,76.6626,VALID,933.224,VALID,28.4801,VALID,146,VALID,1.85312,
2008-08-07, 10:50:04,VALID,1004.02,VALID,0,VALID,74.1756,VALID,924.576,VALID,28.4974,VALID,123,VALID,2.10234,
2008-08-07, 10:51:04,VALID,1004.01,VALID,0,VALID,76.1057,VALID,920.252,VALID,28.5386,VALID,125,VALID,3.23047,
2008-08-07, 10:52:04,VALID,1004.01,VALID,0,VALID,74.229,VALID,928.598,VALID,28.3631,VALID,110,VALID,2.46641,
2008-08-07, 10:53:04,VALID,1004,VALID,0,VALID,72.6117,VALID,901.949,VALID,28.4021,VALID,100,VALID,2.17227,
2008-08-07, 10:54:04,VALID,1003.97,VALID,0,VALID,74.9995,VALID,900.843,VALID,28.4194,VALID,118,VALID,1.82305,
2008-08-07, 10:55:04,VALID,1003.99,VALID,0,VALID,75.4496,VALID,887.77,VALID,28.5927,VALID,141,VALID,2.91211,
2008-08-07, 10:56:04,VALID,1004,VALID,0,VALID,76.3117,VALID,869.467,VALID,28.6707,VALID,94,VALID,2.67773,
2008-08-07, 10:57:04,VALID,1003.99,VALID,0,VALID,74.1756,VALID,563.856,VALID,28.7898,VALID,105,VALID,2.61797,
2008-08-07, 10:58:04,VALID,1003.96,VALID,0,VALID,70.9486,VALID,789.017,VALID,28.6707,VALID,146,VALID,1.35391,
2008-08-07, 10:59:04,VALID,1003.96,VALID,0,VALID,75.3352,VALID,897.625,VALID,28.753,VALID,131,VALID,1.77734,
2008-08-07, 11:00:04,VALID,1003.95,VALID,0,VALID,72.6575,VALID,407.28,VALID,28.7119,VALID,125,VALID,1.69766,
2008-08-07, 11:01:04,VALID,1003.95,VALID,0,VALID,73.6416,VALID,268.604,VALID,28.6339,VALID,97,VALID,1.56914,
2008-08-07, 11:02:04,VALID,1003.96,VALID,0,VALID,75.0529,VALID,324.517,VALID,28.4389,VALID,123,VALID,2.08672,
2008-08-07, 11:03:04,VALID,1003.92,VALID,0,VALID,75.5564,VALID,945.493,VALID,28.3025,VALID,156,VALID,3.67461,
2008-08-07, 11:04:04,VALID,1003.94,VALID,0,VALID,73.4661,VALID,820.895,VALID,28.2851,VALID,112,VALID,2.31094,
2008-08-07, 11:05:04,VALID,1003.94,VALID,0,VALID,73.1915,VALID,907.178,VALID,28.2267,VALID,120,VALID,3.24336,
2008-08-07, 11:06:04,VALID,1003.93,VALID,0,VALID,72.4362,VALID,800.682,VALID,28.3025,VALID,95,VALID,2.43047,
2008-08-07, 11:07:04,VALID,1003.86,VALID,0,VALID,73.6874,VALID,848.148,VALID,28.205,VALID,104,VALID,2.21875,
2008-08-07, 11:08:04,VALID,1003.94,VALID,0,VALID,70.8876,VALID,793.341,VALID,28.2851,VALID,140,VALID,3.03398,
2008-08-07, 11:09:04,VALID,1003.91,VALID,0,VALID,71.9861,VALID,897.323,VALID,28.3805,VALID,100,VALID,2.38047,
2008-08-07, 11:10:04,VALID,1003.84,VALID,0,VALID,69.6059,VALID,871.478,VALID,28.5169,VALID,167,VALID,2.35742,
2008-08-07, 11:11:04,VALID,1003.88,VALID,0,VALID,71.6047,VALID,1044.85,VALID,28.675,VALID,112,VALID,1.84766,
2008-08-07, 11:12:04,VALID,1003.82,VALID,0,VALID,70.9104,VALID,992.154,VALID,28.4779,VALID,147,VALID,3.60781,
2008-08-07, 11:13:04,VALID,1003.81,VALID,0,VALID,73.6721,VALID,776.446,VALID,28.4389,VALID,129,VALID,2.58555,
2008-08-07, 11:14:04,VALID,1003.8,VALID,0,VALID,73.4661,VALID,931.012,VALID,28.3805,VALID,135,VALID,2.43281,
2008-08-07, 11:15:04,VALID,1003.78,VALID,0,VALID,71.5665,VALID,761.161,VALID,28.4584,VALID,123,VALID,2.49961,
2008-08-07, 11:16:04,VALID,1003.76,VALID,0,VALID,74.0764,VALID,861.523,VALID,28.5386,VALID,114,VALID,1.72891,
2008-08-07, 11:17:04,VALID,1003.7,VALID,0,VALID,73.5653,VALID,844.226,VALID,28.6729,VALID,168,VALID,1.64336,
2008-08-07, 11:18:04,VALID,1003.71,VALID,0,VALID,68.7744,VALID,685.437,VALID,28.6729,VALID,141,VALID,2.82969,
2008-08-07, 11:19:04,VALID,1003.66,VALID,0,VALID,71.2385,VALID,783.486,VALID,28.6534,VALID,142,VALID,2.57617,
2008-08-07, 11:20:04,VALID,1003.62,VALID,0,VALID,72.4286,VALID,708.768,VALID,28.5754,VALID,134,VALID,2.04141,
2008-08-07, 11:21:04,VALID,1003.6,VALID,0,VALID,70.3612,VALID,751.607,VALID,28.5169,VALID,162,VALID,3.67227,